36.52977, -87.35945

Hourly Observations for February 13, 2018

Temp ( °F °C ) Dew Point ( °F °C ) Humidity (%) Winds ( mph kmh ) Pressure ( in mb ) Visibility ( mi km ) Precip ( " mm )
12:14 am 00:14 Mostly Cloudy with Mist and Fog 56 13 54 12 93 SE 5 7 30.24 1024 5 8 0.00 0.00
12:52 am 00:52 Mostly Cloudy with Mist and Fog 57 14 55 13 93 SE 6 9 30.21 1023 5 8 0.00 0.00
12:59 am 00:59 Mostly Cloudy with Mist and Fog 57 14 55 13 93 SE 7 11 30.24 1024 6 10 0.00 0.00
1:52 am 01:52 Cloudy 59 15 56 13 90 S 5 7 30.21 1023 10 16 0.00 0.00
2:52 am 02:52 Mostly Cloudy 58 14 55 13 90 S 5 7 30.21 1023 10 16 0.00 0.00
3:16 am 03:16 Cloudy with Heavy Rain 62 17 58 14 86 SW 18 30 30.24 1024 3 4 0.11 2.79
3:27 am 03:27 Cloudy with Light Rain 64 18 59 15 84 WSW 15 24 30.24 1024 8 13 0.12 3.05
3:50 am 03:50 Cloudy with Heavy Rain 64 18 61 16 88 SW 20 31 30.24 1024 2 3 0.25 6.35
3:52 am 03:52 Cloudy with Heavy Rain 64 18 60 16 87 SW 21 33 30.24 1024 2 3 0.28 7.11
4:06 am 04:06 Cloudy with Rain 64 18 60 16 87 WSW 10 17 30.24 1024 3 5 0.09 2.29
4:52 am 04:52 Cloudy with Light Rain 63 17 59 15 87 SSW 9 15 30.24 1024 6 10 0.17 4.32
5:52 am 05:52 Cloudy with Light Rain 62 17 59 15 90 S 5 7 30.21 1023 9 14 0.11 2.79
6:52 am 06:52 Cloudy 61 16 59 15 93 SSE 5 7 30.21 1023 10 16 0.01 0.25
7:52 am 07:52 Cloudy 64 18 60 16 87 SSW 10 17 30.27 1025 10 16 0.00 0.00
8:52 am 08:52 Cloudy 64 18 60 16 87 W 5 7 30.30 1026 10 16 0.00 0.00
9:32 am 09:32 Cloudy 66 19 61 16 84 WSW 7 11 30.33 1027 10 16 0.00 0.00
9:52 am 09:52 Cloudy 66 19 60 16 81 WSW 5 7 30.30 1026 10 16 0.00 0.00
10:52 am 10:52 Mostly Cloudy 70 21 62 17 76 S 8 13 30.27 1025 10 16 0.00 0.00
10:59 am 10:59 Mostly Cloudy 70 21 62 17 76 SSW 12 19 30.27 1025 10 16 0.00 0.00
11:52 am 11:52 Mostly Cloudy 70 21 61 16 73 WSW 7 11 30.27 1025 10 16 0.00 0.00
12:09 pm 12:09 Partly Cloudy 71 22 61 16 71 N 7 11 30.24 1024 10 16 0.00 0.00
12:52 pm 12:52 Mostly Cloudy 72 22 60 16 66 S 12 19 30.21 1023 10 16 0.00 0.00
1:52 pm 13:52 Sunny 73 23 60 16 64 SSW 13 20 30.18 1022 10 16 0.00 0.00
2:52 pm 14:52 Partly Cloudy 74 23 58 14 57 WSW 9 15 30.18 1022 10 16 0.00 0.00
3:50 pm 15:50 Mostly Cloudy 66 19 61 16 83 NNW 14 22 30.21 1023 10 16 0.00 0.00
3:52 pm 15:52 Mostly Cloudy 67 19 61 16 81 NNW 14 22 30.18 1022 10 16 0.00 0.00
4:52 pm 16:52 Mostly Cloudy 66 19 60 16 81 N 6 9 30.18 1022 10 16 0.00 0.00
5:52 pm 17:52 Cloudy 63 17 58 14 84 NW 15 24 30.18 1022 10 16 0.00 0.00
6:13 pm 18:13 Cloudy 62 17 58 14 86 NW 12 19 30.21 1023 10 16 0.00 0.00
6:36 pm 18:36 Cloudy with Light Rain 61 16 58 14 90 NNW 13 20 30.21 1023 10 16 0.00 0.00
6:40 pm 18:40 Cloudy with Light Rain 61 16 58 14 90 N 13 20 30.18 1022 8 13 0.01 0.25
6:52 pm 18:52 Cloudy with Light Rain 61 16 58 14 90 N 10 17 30.18 1022 6 10 0.03 0.76
7:08 pm 19:08 Cloudy with Heavy Thunderstorms 60 16 57 14 90 N 17 28 30.21 1023 3 4 0.13 3.30
7:21 pm 19:21 Cloudy with Light Rain 59 15 56 13 90 N 8 13 30.21 1023 8 13 0.15 3.81
7:52 pm 19:52 Cloudy with Light Rain 58 14 56 13 93 NNW 6 9 30.21 1023 5 8 0.20 5.08
8:19 pm 20:19 Cloudy with Light Rain 58 14 56 13 93 E 6 9 30.21 1023 8 13 0.03 0.76
8:52 pm 20:52 Cloudy with Heavy Rain 58 14 55 13 90 SE 9 15 30.18 1022 2 3 0.10 2.54
9:03 pm 21:03 Cloudy with Rain 58 14 56 13 93 W 9 15 30.21 1023 3 5 0.06 1.52
9:07 pm 21:07 Cloudy with Heavy Rain 58 14 56 13 93 Calm 30.21 1023 3 4 0.09 2.29
9:09 pm 21:09 Cloudy with Heavy Rain 58 14 56 13 93 N 3 6 30.21 1023 3 5 0.09 2.29
9:18 pm 21:18 Cloudy with Rain 58 14 56 13 93 N 3 6 30.21 1023 4 6 0.11 2.79
9:52 pm 21:52 Cloudy 58 14 56 13 93 Calm 30.18 1022 10 16 0.14 3.56
10:52 pm 22:52 Cloudy 58 14 55 13 90 Calm 30.15 1021 10 16 0.00 0.00
11:52 pm 23:52 Mostly Cloudy 57 14 55 13 93 Calm 30.12 1020 10 16 0.01 0.25